{"data":{"norad_id":53068,"intl_designator":"2022-077AB","name":"STARLINK-4325","alt_names":[],"object_type":"PAYLOAD","status":"ACTIVE","operator":null,"country":"US","launch_date":"2022-07-11","launch_site_code":"AFWTR","launch_vehicle":null,"mission":null,"orbit_class":"UNKNOWN","rcs_meters":null,"size_class":null,"mass_kg":null,"dimensions":null,"purposes":["comms"],"wikipedia_slug":null,"has_3d_model":false,"image_url":null,"decayed_at":null,"tle_current":{"epoch":"2026-05-25T01:29:11.980608Z","epoch_age_seconds":78618,"freshness":"FRESH","line1":"1 53068U 22077AB  26145.06194422  .00006819  00000+0  47665-3 0  9990","line2":"2 53068  97.4490 326.1169 0000502 138.6094 221.5172 15.05616376212479","mean_motion":15.05616376,"eccentricity":5.02e-5,"inclination_deg":97.449,"raan_deg":326.1169,"arg_perigee_deg":138.6094,"mean_anomaly_deg":221.5172,"bstar":0.00047665,"rev_number":21247,"period_min":95.6418927792,"perigee_km":549.26652113004,"apogee_km":549.96206735998,"semimajor_km":6927.751294245,"source":"CELESTRAK","updated_at":"2026-05-25T13:38:17.311032Z"}}}